Location: Cold Norton
(51.6667°N, 0.6667°E)
Time: 17:53:19
(UTC+00:00)

IRS-1C - Pass Details

Date: 18 November 2025
Orbit: 813 x 814 km, 99.0° (Epoch: 09 December)

Event Time Altitude Azimuth Distance (km) Brightness Sun altitude
Rises 17:14:54 0° 161° (SSE) 3,327 7.3 -11.0°
Reaches altitude 10° 17:17:13 10° 161° (SSE) 2,400 6.6 -11.3°
Maximum altitude 17:22:33 87° 73° (ENE) 823 4.1 -12.1°
Drops below altitude 10° 17:27:54 10° 345° (NNW) 2,416 6.6 -12.9°
Sets 17:30:15 0° 345° (NNW) 3,352 7.3 -13.2°
